[[{"header":{"parameterUnit":"m.s-1","parameterCategory":1,"la1":30.2991,"la2":30.254,"lo1":-89.0895,"lo2":-89.0444,"dy":0.0017,"dx":0.0017,"nx":28,"ny":28,"refTime":"2025-09-19T09:00:00:Z","depth":0,"parameterNumber":2,"parameterNumberName":"U-component_of_WINDS"},"data":[0,0,0,0,0,0,0,0,0,0,0,0,0,0,0,0,0,0,0,0,0,0,0,0,0,0,0,0,0,0,0,0,0,0,0,0,0,0,0,0,0,0,0,0,0,0,0,0,0,0,0,0,0,0,0,0,0,0,1.7459,1.746,0,1.7588,1.7589,1.759,1.7639,1.7638,1.7638,1.7638,1.7767,1.7771,1.7775,0,0,0,0,0,0,0,0,0,0,0,0,0,1.7252,1.7255,1.7459,1.746,1.7462,1.7587,1.7589,1.7591,1.7639,1.7638,1.7638,1.7637,1.7766,1.777,1.7775,0,0,0,0,0,0,0,0,0,0,0,0,0,1.7357,1.7257,1.7458,1.7501,1.7506,1.7587,1.7589,1.7591,1.7639,1.7638,1.7638,1.7637,1.7764,1.777,1.7776,1.7823,0,0,1.7793,1.7796,0,0,0,0,0,0,0,0,1.7351,1.7365,1.7493,1.7498,1.7504,1.7597,1.7564,1.7669,1.7639,1.7588,1.7638,1.7637,1.7711,1.7721,1.7746,1.7829,1.7834,1.7794,1.7797,1.78,1.7801,0,0,0,0,0,0,0,1.7344,1.7359,1.751,1.7495,1.7502,1.7513,1.7527,1.7584,1.7651,1.7593,1.7597,1.7611,1.7714,1.7741,1.775,1.7836,1.7793,1.7799,1.7802,1.7804,1.7963,1.7964,0,0,0,0,0,0,1.733,1.7353,1.7506,1.7514,1.7425,1.7517,1.7533,1.7567,1.7651,1.7663,1.7612,1.7613,1.7731,1.7743,1.7754,1.7815,1.78,1.7805,1.7808,1.7963,1.7964,1.7964,0,0,0,0,0,0,1.7325,1.7343,1.75,1.7434,1.7455,1.7521,1.7559,1.757,1.7597,1.7665,1.7677,1.7627,1.7731,1.7746,1.7805,1.782,1.7807,1.7813,1.7962,1.7963,1.7964,1.7935,0,0,0,0,0,0,1.7319,1.7341,1.736,1.7434,1.7459,1.755,1.756,1.7573,1.7607,1.761,1.7683,1.7694,1.7732,1.7797,1.7811,1.7827,1.7817,1.7961,1.7962,1.7964,1.7935,1.7936,1.7936,0,0,0,0,0,1.7311,1.7347,1.7361,1.7379,1.7484,1.7551,1.7564,1.7608,1.7608,1.7628,1.7671,1.7692,1.7816,1.7802,1.7819,1.7837,1.796,1.7962,1.7964,1.7935,1.7936,1.7936,0,0,0,0,0,0,1.7271,1.7357,1.7374,1.7435,1.7485,1.7559,1.7585,1.7607,1.7657,1.7658,1.7709,1.7725,1.778,1.7815,1.7798,1.7887,1.7889,1.7894,1.7862,1.7863,1.7863,1.7853,1.7822,0,0,0,0,0,1.727,1.7318,1.739,1.7436,1.7461,1.7518,1.7549,1.7578,1.7632,1.7653,1.7701,1.7752,1.7802,1.7835,1.7885,1.7941,1.7957,1.7962,1.7962,1.7961,1.7965,1.7996,1.7999,1.797,1.797,1.797,0,0,1.7267,1.7319,1.7346,1.7429,1.7472,1.7519,1.7536,1.7585,1.7621,1.766,1.7719,1.7756,1.7816,1.7874,1.7901,1.7904,1.7977,1.7964,1.7963,1.7967,1.7999,1.8001,1.8004,1.7971,1.7971,1.7971,0,0,1.7285,1.733,1.7374,1.7416,1.7481,1.7519,1.7529,1.7599,1.7625,1.7685,1.7716,1.7758,1.7845,1.7886,1.7919,1.7952,1.7973,1.7967,1.7967,1.7997,1.8,1.8002,1.8013,1.8017,1.7971,1.7971,1.7971,0,1.7273,1.7346,1.7393,1.7441,1.7476,1.7515,1.7559,1.7597,1.7674,1.7697,1.77,1.7808,1.7852,1.7919,1.7927,1.7952,1.7965,1.7959,1.7996,1.7999,1.8001,1.8013,1.8017,1.7969,1.797,1.797,1.797,0,1.7328,1.7378,1.7405,1.748,1.7518,1.7563,1.7616,1.7649,1.7674,1.7711,1.7771,1.7825,1.7886,1.7905,1.793,1.7975,1.7975,1.7986,1.7989,1.8002,1.8014,1.8018,1.7968,1.7968,1.7969,1.7969,0,0,1.7325,1.7424,1.7433,1.7467,1.7541,1.758,1.7627,1.7688,1.7715,1.7766,1.7806,1.7878,1.7889,1.7925,1.7955,1.7982,1.8004,1.799,1.7992,1.799,1.8057,1.8048,1.8052,1.8018,1.802,1.802,1.8052,0,1.7352,1.7439,1.7482,1.7549,1.7596,1.7633,1.7674,1.7723,1.7759,1.7803,1.7843,1.7892,1.7903,1.7925,1.7953,1.7995,1.8018,1.7994,1.8055,1.8057,1.8039,1.8059,1.8049,1.8076,1.8057,1.8057,1.8058,0,1.7396,1.7448,1.7521,1.7589,1.761,1.7646,1.7704,1.7746,1.7802,1.7827,1.7867,1.7897,1.7947,1.7947,1.8015,1.7998,1.8026,1.805,1.8052,1.8059,1.8058,1.8065,1.8086,1.809,1.8066,1.8065,1.8064,0,1.7386,1.7474,1.7529,1.7557,1.7637,1.7662,1.7696,1.7752,1.7785,1.7837,1.7859,1.7915,1.7945,1.7987,1.8031,1.8027,1.8095,1.8099,1.8116,1.8115,1.8128,1.8127,1.8153,1.8147,1.8147,1.8147,1.8147,0,1.7412,1.7454,1.7525,1.7558,1.7607,1.7655,1.7702,1.7739,1.7788,1.7829,1.7864,1.7901,1.7957,1.8001,1.8035,1.8086,1.81,1.812,1.8129,1.8117,1.8114,1.8136,1.8135,1.8148,1.8148,1.8147,1.8147,0,1.7408,1.7458,1.7519,1.7591,1.761,1.7642,1.7703,1.7737,1.7774,1.7825,1.784,1.7899,1.7952,1.8,1.8071,1.8094,1.8146,1.8157,1.8127,1.8132,1.8146,1.8144,1.8187,1.8194,1.8183,1.8183,1.8183,0,1.7422,1.7455,1.7531,1.7561,1.7595,1.7643,1.7678,1.7727,1.7761,1.7827,1.7852,1.7909,1.7956,1.804,1.8088,1.8142,1.8155,1.8166,1.8163,1.815,1.8154,1.8151,1.8155,1.8165,1.8165,1.8165,1.8165,0,1.744,1.7462,1.7512,1.7569,1.7609,1.7657,1.7705,1.7727,1.7785,1.7822,1.7877,1.7914,1.7986,1.8041,1.8101,1.8136,1.816,1.8166,1.8172,1.816,1.8142,1.8151,1.8126,1.8164,1.8164,1.8164,1.8164,1.8164,1.7445,1.7476,1.7534,1.7588,1.7629,1.7673,1.7708,1.7751,1.7798,1.7861,1.7887,1.7943,1.7997,1.808,1.8115,1.8159,1.8163,1.8173,1.8176,1.8177,1.8175,1.8135,1.817,1.817,1.817,1.817,1.817,0,1.7464,1.7504,1.7552,1.7619,1.766,1.768,1.7735,1.7768,1.7817,1.7866,1.7913,1.7976,1.8029,1.8082,1.8138,1.8163,1.8176,1.8176,1.8175,1.8182,1.8168,1.8156,1.8165,1.8165,1.8165,1.8165,1.8165,1.8165,1.7479,1.7534,1.7563,1.7638,1.7677,1.7732,1.7762,1.7802,1.7842,1.7911,1.7956,1.799,1.8041,1.8101,1.8151,1.8165,1.8184,1.8181,1.8198,1.8183,1.8183,1.8183,1.8172,1.8185,1.8185,1.8209,1.8209,1.8209]},{"header":{"parameterUnit":"m.s-1","parameterCategory":1,"la1":30.2991,"la2":30.254,"lo1":-89.0895,"lo2":-89.0444,"dy":0.0017,"dx":0.0017,"nx":28,"ny":28,"refTime":"2025-09-19T09:00:00:Z","depth":0,"parameterNumber":3,"parameterNumberName":"V-component_of_WINDS"},"data":[0,0,0,0,0,0,0,0,0,0,0,0,0,0,0,0,0,0,0,0,0,0,0,0,0,0,0,0,0,0,0,0,0,0,0,0,0,0,0,0,0,0,0,0,0,0,0,0,0,0,0,0,0,0,0,0,0,0,3.6544,3.6544,0,3.6509,3.6509,3.6509,3.6453,3.6452,3.6451,3.645,3.6414,3.6414,3.6413,0,0,0,0,0,0,0,0,0,0,0,0,0,3.6564,3.6564,3.6545,3.6544,3.6544,3.6509,3.6509,3.6508,3.6453,3.6452,3.645,3.6449,3.6414,3.6414,3.6413,0,0,0,0,0,0,0,0,0,0,0,0,0,3.6545,3.6564,3.6545,3.6512,3.6509,3.6509,3.6509,3.6508,3.6453,3.6452,3.645,3.6449,3.6414,3.6414,3.6413,3.6444,0,0,3.6413,3.6413,0,0,0,0,0,0,0,0,3.6546,3.6544,3.6517,3.6514,3.651,3.6484,3.6502,3.6487,3.6454,3.6474,3.645,3.6448,3.6438,3.6436,3.6433,3.6442,3.644,3.6413,3.6413,3.6413,3.6413,0,0,0,0,0,0,0,3.6547,3.6545,3.6531,3.6517,3.6513,3.6499,3.6495,3.6499,3.6465,3.6472,3.6468,3.6465,3.6436,3.6433,3.6431,3.644,3.6413,3.6413,3.6413,3.6413,3.6472,3.6473,0,0,0,0,0,0,3.6553,3.6547,3.6532,3.6529,3.6525,3.65,3.6495,3.6494,3.6465,3.6459,3.6466,3.6462,3.6434,3.6432,3.643,3.6463,3.6413,3.6413,3.6413,3.647,3.6472,3.6474,0,0,0,0,0,0,3.6554,3.6553,3.6533,3.6537,3.6533,3.6501,3.65,3.6494,3.6491,3.646,3.6454,3.6469,3.6432,3.643,3.6441,3.6461,3.6413,3.6413,3.6468,3.6471,3.6473,3.6529,0,0,0,0,0,0,3.6555,3.6553,3.6564,3.6538,3.6533,3.6544,3.6502,3.6494,3.6491,3.6486,3.6461,3.6456,3.6431,3.6441,3.6441,3.646,3.6413,3.6466,3.6469,3.6472,3.6525,3.6533,3.6539,0,0,0,0,0,3.6556,3.6581,3.6565,3.6564,3.6547,3.6546,3.6543,3.6514,3.6493,3.6503,3.6484,3.6457,3.6459,3.6442,3.6442,3.6461,3.6465,3.6468,3.6472,3.6522,3.6531,3.6539,0,0,0,0,0,0,3.6611,3.6577,3.6559,3.6577,3.6564,3.6536,3.6549,3.6525,3.6519,3.6514,3.6478,3.6473,3.6488,3.6476,3.6458,3.6489,3.6458,3.6461,3.6496,3.6505,3.6512,3.6514,3.6413,0,0,0,0,0,3.6625,3.6627,3.6598,3.6617,3.6611,3.6582,3.658,3.6559,3.6545,3.6539,3.652,3.6508,3.6505,3.6504,3.6501,3.6523,3.6517,3.6536,3.6544,3.655,3.6553,3.6563,3.6571,3.6485,3.6485,3.6485,0,0,3.6655,3.6637,3.664,3.6627,3.6615,3.6618,3.6577,3.6582,3.6584,3.654,3.6548,3.6534,3.6518,3.6534,3.6541,3.6524,3.6575,3.6554,3.6559,3.6559,3.6568,3.6576,3.6583,3.6488,3.6487,3.6487,0,0,3.6709,3.6696,3.671,3.6699,3.6682,3.6662,3.6665,3.6641,3.663,3.6638,3.6605,3.6606,3.6603,3.6593,3.6587,3.6639,3.6613,3.6639,3.6676,3.6687,3.6693,3.6699,3.6717,3.6724,3.6642,3.6642,3.6642,0,3.6748,3.6751,3.672,3.6727,3.6722,3.6683,3.6696,3.6687,3.667,3.6667,3.6649,3.6645,3.6631,3.6644,3.6657,3.6654,3.6656,3.6641,3.6695,3.67,3.6705,3.6722,3.6729,3.6645,3.6645,3.6645,3.6644,0,3.6799,3.6801,3.6815,3.6799,3.6795,3.6806,3.6777,3.6777,3.6757,3.6739,3.6747,3.673,3.6722,3.6723,3.6703,3.6734,3.6724,3.6702,3.6669,3.6717,3.6732,3.6738,3.665,3.6649,3.6648,3.6647,0,0,3.6886,3.6853,3.6858,3.6851,3.6829,3.683,3.6839,3.6831,3.6832,3.6822,3.6827,3.6826,3.6805,3.6799,3.6777,3.6787,3.6828,3.6762,3.6761,3.6774,3.686,3.6876,3.6884,3.6812,3.6813,3.6813,3.6861,0,3.6935,3.6948,3.6921,3.694,3.6941,3.6905,3.6912,3.69,3.6884,3.6883,3.6865,3.6864,3.6837,3.6832,3.684,3.6821,3.6844,3.6818,3.6816,3.6816,3.682,3.6892,3.6909,3.6954,3.6866,3.6867,3.6868,0,3.6994,3.6986,3.7006,3.6983,3.6983,3.699,3.698,3.698,3.6966,3.6953,3.6947,3.6922,3.6928,3.6899,3.6907,3.689,3.6888,3.6878,3.6879,3.6877,3.6844,3.689,3.6968,3.6975,3.6877,3.6876,3.6876,0,3.7054,3.7049,3.706,3.7054,3.7028,3.7034,3.7024,3.7007,3.7005,3.6997,3.6994,3.6987,3.6983,3.6979,3.6952,3.6933,3.6964,3.6932,3.6953,3.6954,3.696,3.696,3.7038,3.6961,3.6961,3.6961,3.6961,0,3.7111,3.7124,3.7086,3.7093,3.7107,3.7076,3.709,3.7076,3.7062,3.7065,3.7033,3.7037,3.7003,3.7003,3.6982,3.6992,3.6991,3.698,3.6975,3.6982,3.6984,3.698,3.6975,3.6963,3.6962,3.6962,3.6961,0,3.718,3.7155,3.7165,3.714,3.7134,3.7145,3.7123,3.7128,3.711,3.7114,3.7114,3.7086,3.7084,3.7058,3.705,3.7036,3.7054,3.7043,3.7059,3.7055,3.7077,3.7074,3.7153,3.7162,3.7081,3.7082,3.7083,0,3.7217,3.7226,3.7203,3.7202,3.7193,3.7194,3.719,3.7161,3.7159,3.7143,3.715,3.7146,3.714,3.7139,3.7118,3.7112,3.71,3.7128,3.7099,3.7106,3.7099,3.7098,3.7099,3.7134,3.7135,3.7136,3.7136,0,3.7286,3.7273,3.727,3.7263,3.726,3.7253,3.7244,3.7246,3.7213,3.7213,3.721,3.7207,3.7199,3.7195,3.7185,3.7174,3.715,3.7146,3.715,3.7158,3.7166,3.7161,3.7074,3.7144,3.7143,3.7143,3.7142,3.7142,3.7339,3.7345,3.7329,3.7327,3.7317,3.731,3.7313,3.7296,3.7293,3.7285,3.7268,3.7268,3.7254,3.7238,3.7229,3.7229,3.7214,3.7221,3.7222,3.7224,3.7228,3.7168,3.7227,3.7227,3.7227,3.7227,3.7226,0,3.7405,3.7393,3.7391,3.7379,3.7378,3.7356,3.7345,3.7344,3.7345,3.7334,3.7329,3.7327,3.7323,3.7302,3.7295,3.7299,3.7288,3.7298,3.7297,3.7295,3.7242,3.7238,3.7308,3.7308,3.7308,3.7308,3.7308,3.7308,3.7439,3.7448,3.7434,3.7438,3.7426,3.7426,3.7422,3.7415,3.7405,3.7404,3.74,3.7387,3.7371,3.7364,3.7359,3.7353,3.7352,3.7366,3.7356,3.7306,3.7299,3.7291,3.7287,3.7366,3.7366,3.7408,3.7409,3.7409]}]]